Погода в Кубе

Азербайджан     41°21′49″N   48°31′22″E
темп.,
°C
ветер,
м/с
пор.,
м/с
влажн.,
%
обл.,
%
осадки,
мм/ч
давл.,
гПа
погр.,
м
6 мая, чт
чт601:00+4зюз1191100 0.0 102083
04:00+4юз118991 0.0 101910
07:00+6юв11804 0.0 101972
10:00+10всв326430 0.0 1017718
13:00+11всв436850 0.0 1016828
16:00+11всв327131 0.1 1014638
19:00+8всв228421 0.0 1015137
22:00+6ююз11901 0.0 101610
7 мая, пт
пт701:00+6юз11850 0.0 101610
04:00+6юз117249 0.0 101510
07:00+8всв0165100 0.0 101539
10:00+12св316870 0.0 1016502
13:00+14св427196 0.0 1016779
16:00+13св3279100 0.1 1016697
19:00+11св1190100 0.1 101880
22:00+9зюз229195 0.1 102012
8 мая, сб
сб801:00+8юз326914 0.0 102019
04:00+8юз325279 0.0 101921
07:00+10юз226224 0.0 102025
10:00+15всв32550 0.0 1018700
13:00+17всв43600 0.0 1016920
16:00+16св427774 0.0 1016662
19:00+14с11886 0.0 1015100
22:00+12юз22815 0.0 101516
9 мая, вс
вс901:00+11юз326476 0.0 101319
04:00+12юз334795 0.0 101128
07:00+14юз335381 0.0 100938
10:00+20всв22460 0.0 1006536
13:00+23всв2346100 0.0 1004847
16:00+22ссв225324 0.0 1004762
19:00+14св129477 2.3 1010135
22:00+12в1199100 4.1 1013185
10 мая, пн
пн1001:00+11всв2399100 7.0 1014414
04:00+8св4499100 12.4 1017353
07:00+5всв3499100 0.6 1021453
10:00+3в1297100 5.7 1023360
13:00+3с1295100 2.4 1024324
16:00+3всв2298100 2.9 1023374
19:00+2ююз129391 0.2 1024148
22:00+2юз339234 0.2 102570